{"data":{"norad_id":69808,"intl_designator":"2026-153J","name":"QIANFAN-209","alt_names":[],"object_type":"PAYLOAD","status":"ACTIVE","operator":null,"country":"PRC","launch_date":"2026-07-04","launch_site_code":"TAISC","launch_vehicle":null,"mission":null,"orbit_class":"UNKNOWN","rcs_meters":null,"size_class":null,"mass_kg":null,"dimensions":null,"purposes":[],"wikipedia_slug":null,"has_3d_model":false,"image_url":null,"decayed_at":null,"tle_current":{"epoch":"2026-09-20T04:20:24.277056Z","epoch_age_seconds":49260,"freshness":"FRESH","line1":"1 69808U 26153J   26263.18083654 -.00000050  00000+0 -40916-4 0  9992","line2":"2 69808  88.9982 351.5035 0006592 340.4768  19.6159 14.02902201 11007","mean_motion":14.02902201,"eccentricity":0.0006592,"inclination_deg":88.9982,"raan_deg":351.5035,"arg_perigee_deg":340.4768,"mean_anomaly_deg":19.6159,"bstar":-4.0916e-5,"rev_number":1100,"period_min":102.64436102342,"perigee_km":878.97561188009,"apogee_km":888.54970038673,"semimajor_km":7261.8996561334,"source":"CELESTRAK","updated_at":"2026-09-20T09:00:25.121062Z"}}}